When you browse on this site, cookies collect data to enhance your experience and personalize the content and advertising you see.
Visit our Privacy Policy to learn more. By continuing to use the site, you agree to this use of cookies and data.
EN

Hourly Weather Bad Pyrmont

Today, 15 July, Wednesday

Time Temperature Precipitation Wind Pressure Humidity
00:00 +13°C° 0.1 mm 0 mps 750 mmHg 96%
01:00 +14°C° 0 mm 0 mps 750 mmHg 98%
02:00 +13°C° 0.1 mm 0 mps 750 mmHg 97%
03:00 +14°C° 0.1 mm 1 mps 749 mmHg 97%
04:00 +14°C° 0.1 mm 1 mps 749 mmHg 97%
05:00 +14°C° 0 mm 1 mps 749 mmHg 96%
06:00 +14°C° 0 mm 1 mps 749 mmHg 95%
07:00 +15°C° 0 mm 1 mps 749 mmHg 94%
08:00 +15°C° 0.1 mm 1 mps 750 mmHg 90%
09:00 +16°C° 0.1 mm 2 mps 750 mmHg 86%
10:00 +17°C° 0.1 mm 2 mps 750 mmHg 81%
11:00 +18°C° 0.1 mm 2 mps 750 mmHg 74%
12:00 +19°C° 0.1 mm 3 mps 750 mmHg 66%
13:00 +20°C° 0.1 mm 3 mps 750 mmHg 58%
14:00 +21°C° 0 mm 4 mps 750 mmHg 59%
15:00 +21°C° 0 mm 4 mps 750 mmHg 59%
16:00 +21°C° 0 mm 4 mps 750 mmHg 60%
17:00 +20°C° 0.1 mm 3 mps 750 mmHg 66%
18:00 +19°C° 0.1 mm 3 mps 750 mmHg 72%
19:00 +18°C° 0.1 mm 3 mps 750 mmHg 79%
20:00 +17°C° 0.1 mm 2 mps 751 mmHg 83%
21:00 +15°C° 0.1 mm 2 mps 751 mmHg 87%
22:00 +14°C° 0.1 mm 1 mps 751 mmHg 92%
23:00 +13°C° 0 mm 1 mps 751 mmHg 93%

Tomorrow, 16 July, Thursday

Time Temperature Precipitation Wind Pressure Humidity
00:00 +13°C° 0 mm 1 mps 752 mmHg 94%
01:00 +12°C° 0 mm 1 mps 752 mmHg 95%
02:00 +11°C° 0 mm 0 mps 752 mmHg 95%
03:00 +10°C° 0 mm 0 mps 752 mmHg 95%
04:00 +10°C° 0 mm 0 mps 752 mmHg 96%
05:00 +11°C° 0 mm 0 mps 752 mmHg 94%
06:00 +12°C° 0 mm 0 mps 752 mmHg 93%
07:00 +13°C° 0 mm 0 mps 752 mmHg 92%
08:00 +14°C° 0 mm 0 mps 752 mmHg 86%
09:00 +15°C° 0 mm 0 mps 752 mmHg 80%
10:00 +16°C° 0 mm 0 mps 752 mmHg 74%
11:00 +19°C° 0.3 mm 1 mps 752 mmHg 72%
12:00 +20°C° 0.3 mm 1 mps 752 mmHg 69%
13:00 +20°C° 0.3 mm 2 mps 752 mmHg 67%
14:00 +19°C° 0.5 mm 2 mps 752 mmHg 72%
15:00 +19°C° 0.5 mm 2 mps 752 mmHg 76%
16:00 +18°C° 0.5 mm 3 mps 752 mmHg 81%
17:00 +18°C° 0.3 mm 3 mps 752 mmHg 83%
18:00 +17°C° 0.3 mm 3 mps 752 mmHg 85%
19:00 +17°C° 0.3 mm 2 mps 752 mmHg 88%
20:00 +16°C° 0 mm 2 mps 752 mmHg 90%
21:00 +14°C° 0 mm 1 mps 753 mmHg 93%
22:00 +13°C° 0 mm 1 mps 753 mmHg 96%
23:00 +13°C° 0 mm 1 mps 753 mmHg 96%

Day after tomorrow, 17 July, Friday

Time Temperature Precipitation Wind Pressure Humidity
00:00 +12°C° 0 mm 1 mps 753 mmHg 96%
01:00 +11°C° 0 mm 0 mps 753 mmHg 96%
02:00 +11°C° 0 mm 0 mps 753 mmHg 97%
03:00 +10°C° 0 mm 0 mps 753 mmHg 97%
04:00 +10°C° 0 mm 0 mps 753 mmHg 97%
05:00 +11°C° 0 mm 0 mps 753 mmHg 95%
06:00 +13°C° 0 mm 0 mps 754 mmHg 92%
07:00 +15°C° 0 mm 1 mps 754 mmHg 90%
08:00 +18°C° 0 mm 1 mps 754 mmHg 83%
09:00 +19°C° 0 mm 1 mps 754 mmHg 76%
10:00 +21°C° 0 mm 1 mps 754 mmHg 69%
11:00 +22°C° 0 mm 1 mps 754 mmHg 64%
12:00 +21°C° 0 mm 2 mps 754 mmHg 60%
13:00 +23°C° 0 mm 2 mps 754 mmHg 56%
14:00 +23°C° 0 mm 2 mps 754 mmHg 56%
15:00 +24°C° 0 mm 2 mps 754 mmHg 55%
16:00 +24°C° 0 mm 2 mps 753 mmHg 55%
17:00 +23°C° 0 mm 2 mps 753 mmHg 60%
18:00 +21°C° 0 mm 2 mps 753 mmHg 66%
19:00 +22°C° 0 mm 1 mps 753 mmHg 71%
20:00 +20°C° 0 mm 1 mps 754 mmHg 76%
21:00 +18°C° 0 mm 1 mps 754 mmHg 81%
22:00 +15°C° 0 mm 1 mps 754 mmHg 86%
23:00 +15°C° 0 mm 1 mps 754 mmHg 87%

18 July, Saturday

Time Temperature Precipitation Wind Pressure Humidity
00:00 +13°C° 0 mm 0 mps 754 mmHg 88%
01:00 +13°C° 0 mm 0 mps 754 mmHg 89%
02:00 +13°C° 0 mm 0 mps 754 mmHg 90%
03:00 +12°C° 0 mm 0 mps 754 mmHg 91%
04:00 +12°C° 0 mm 0 mps 754 mmHg 91%
05:00 +14°C° 0 mm 0 mps 754 mmHg 87%
06:00 +15°C° 0 mm 0 mps 754 mmHg 84%
07:00 +19°C° 0 mm 1 mps 754 mmHg 80%
08:00 +19°C° 0 mm 0 mps 754 mmHg 73%
09:00 +20°C° 0 mm 0 mps 754 mmHg 66%
10:00 +22°C° 0 mm 0 mps 754 mmHg 59%
11:00 +23°C° 0 mm 0 mps 754 mmHg 57%
12:00 +24°C° 0 mm 0 mps 753 mmHg 54%
13:00 +24°C° 0 mm 0 mps 753 mmHg 52%
14:00 +24°C° 0 mm 0 mps 753 mmHg 51%
15:00 +24°C° 0 mm 0 mps 753 mmHg 51%
16:00 +24°C° 0 mm 0 mps 752 mmHg 50%
17:00 +23°C° 0 mm 0 mps 752 mmHg 57%
18:00 +23°C° 0 mm 0 mps 752 mmHg 63%
19:00 +22°C° 0 mm 0 mps 752 mmHg 69%
20:00 +20°C° 0 mm 0 mps 752 mmHg 73%
21:00 +19°C° 0 mm 0 mps 753 mmHg 77%
22:00 +17°C° 0 mm 0 mps 753 mmHg 81%
23:00 +19°C° 0 mm 1 mps 753 mmHg 83%

19 July, Sunday

Time Temperature Precipitation Wind Pressure Humidity
00:00 +18°C° 0 mm 1 mps 752 mmHg 84%
01:00 +18°C° 0 mm 1 mps 752 mmHg 85%
02:00 +18°C° 0 mm 1 mps 752 mmHg 86%
03:00 +18°C° 0 mm 1 mps 752 mmHg 87%
04:00 +16°C° 0 mm 1 mps 752 mmHg 87%
05:00 +18°C° 0 mm 1 mps 752 mmHg 85%
06:00 +19°C° 0 mm 1 mps 752 mmHg 83%
07:00 +20°C° 0 mm 1 mps 752 mmHg 81%
08:00 +21°C° 0 mm 1 mps 751 mmHg 78%
09:00 +22°C° 0 mm 1 mps 751 mmHg 75%
10:00 +23°C° 0 mm 1 mps 751 mmHg 72%
11:00 +24°C° 0.5 mm 2 mps 751 mmHg 70%
12:00 +24°C° 0.5 mm 2 mps 751 mmHg 69%
13:00 +25°C° 0.5 mm 2 mps 751 mmHg 67%
14:00 +25°C° 0.8 mm 2 mps 751 mmHg 69%
15:00 +25°C° 0.8 mm 2 mps 750 mmHg 70%
16:00 +25°C° 0.8 mm 2 mps 750 mmHg 72%
17:00 +24°C° 0.9 mm 2 mps 750 mmHg 76%
18:00 +24°C° 0.9 mm 2 mps 750 mmHg 80%
19:00 +23°C° 0.9 mm 1 mps 750 mmHg 85%
20:00 +21°C° 0.5 mm 1 mps 751 mmHg 88%
21:00 +20°C° 0.5 mm 1 mps 751 mmHg 91%
22:00 +19°C° 0.5 mm 1 mps 751 mmHg 94%
23:00 +17°C° 0.1 mm 2 mps 751 mmHg 95%

20 July, Monday

Time Temperature Precipitation Wind Pressure Humidity
00:00 +17°C° 0.1 mm 2 mps 752 mmHg 96%
01:00 +16°C° 0.1 mm 2 mps 752 mmHg 97%
02:00 +16°C° 0.1 mm 2 mps 752 mmHg 97%
03:00 +15°C° 0.1 mm 2 mps 752 mmHg 96%
04:00 +15°C° 0.1 mm 2 mps 752 mmHg 96%
05:00 +14°C° 0.3 mm 2 mps 753 mmHg 95%
06:00 +14°C° 0.3 mm 2 mps 753 mmHg 95%
07:00 +14°C° 0.3 mm 2 mps 753 mmHg 94%
08:00 +14°C° 0.1 mm 3 mps 754 mmHg 87%
09:00 +16°C° 0.1 mm 3 mps 754 mmHg 80%
10:00 +17°C° 0.1 mm 4 mps 754 mmHg 72%
11:00 +18°C° 0 mm 4 mps 754 mmHg 67%
12:00 +19°C° 0 mm 4 mps 754 mmHg 61%
13:00 +20°C° 0 mm 4 mps 754 mmHg 55%
14:00 +20°C° 0 mm 4 mps 754 mmHg 55%
15:00 +20°C° 0 mm 4 mps 754 mmHg 55%
16:00 +20°C° 0 mm 4 mps 754 mmHg 55%
17:00 +19°C° 0.1 mm 3 mps 754 mmHg 63%
18:00 +18°C° 0.1 mm 3 mps 755 mmHg 71%
19:00 +17°C° 0.1 mm 2 mps 755 mmHg 78%
20:00 +16°C° 0.1 mm 2 mps 755 mmHg 83%
21:00 +14°C° 0.1 mm 1 mps 755 mmHg 87%
22:00 +13°C° 0.1 mm 1 mps 756 mmHg 92%
23:00 +12°C° 0 mm 1 mps 756 mmHg 93%
Show more